Location: Beuerbach
(48.1459°N, 10.9174°E)
Time: 03:34:25
(UTC+00:00)

Cosmos 1980 Rocket - Pass Details

Date: 23 May 2024
Orbit: 827 x 851 km, 71.0° (Epoch: 13 June)

Event Time Altitude Azimuth Distance (km) Brightness Sun altitude
Rises 01:05:32 0° 321° (NW) 3,427 5.7 -16.7°
Reaches altitude 10° 01:08:33 10° 306° (NW) 2,486 4.7 -16.5°
Maximum altitude 01:12:41 21° 260° (W) 1,824 3.6 -16.2°
Enters shadow 01:13:54 20° 242° (WSW) 1,888 3.5 -16.1°
